Tel Aviv, Israel

8:32 PM IDT on August 28, 2016 (GMT +0300)
Ben Gurion

Weather History for LLBG - February, 2014

Change the Weather History Date:

Saturday, February 8, 2014

  Actual Average Record
Temperature  
Mean Temperature 54 °F -  
Max Temperature 68 °F 63 °F 75 °F (2009)
Min Temperature 39 °F 49 °F 33 °F (1997)
Degree Days  
Heating Degree Days 12    
Growing Degree Days 4 (Base 50)    
Moisture  
Dew Point 35 °F    
Average Humidity 50    
Maximum Humidity 71    
Minimum Humidity 16    
Precipitation  
Precipitation 0.00 in - - ()
Sea Level Pressure  
Sea Level Pressure 30.16 in    
Wind  
Wind Speed 4 mph ()    
Max Wind Speed 14 mph    
Max Gust Speed -    
Visibility 6.0 miles    
Events      
Averages and records for this station are not official NWS values.
T = Trace of Precipitation, MM = Missing Value Source: Averaged Metar Reports

Daily Weather History Graph

Daily Weather History Graph

Search for Another Location

Airport or City:

Trip Planner

Search our weather history database for the weather conditions in past years. The results will help you decide how hot, cold, wet, or windy it might be!

Date:

Astronomy

Feb. 08, 2014 Rise Set
Actual Time 6:29 AM IST 5:20 PM IST
Civil Twilight 6:03 AM IST 5:45 PM IST
Nautical Twilight 5:34 AM IST 6:14 PM IST
Astronomical Twilight 5:06 AM IST 6:43 PM IST
Moon 12:04 PM IST (2/8) 1:18 AM IST (2/8)
Length of Visible Light 11h 41m
Length of Day
10h 51m
Waxing Gibbous, 66% of the Moon is Illuminated
Feb 8
Waxing Gibbous
Feb 15
Full
Feb 22
Last Quarter
Mar 1
New
Mar 8
First Quarter

Hourly Weather History & Observations

Time (IST) Temp. Windchill Dew Point Humidity Pressure Visibility Wind Dir Wind Speed Gust Speed Precip Events Conditions
12:20 AM 46.4 °F - 35.6 °F 66% 30.12 in - Variable 2.3 mph - N/A   Clear
12:50 AM 46.4 °F 45.2 °F 35.6 °F 66% 30.12 in - Variable 3.5 mph - N/A   Clear
1:20 AM 44.6 °F 43.1 °F 35.6 °F 71% 30.12 in - Variable 3.5 mph - N/A   Clear
1:50 AM 44.6 °F - 33.8 °F 66% 30.12 in - Variable 2.3 mph - N/A   Clear
2:00 AM 44 °F - 34 °F 57% 30.13 in 6 mi 3.5 mph - -  
2:20 AM 42.8 °F - 33.8 °F 70% 30.12 in - Variable 2.3 mph - N/A   Clear
2:50 AM 42.8 °F - 33.8 °F 70% 30.12 in - Variable 1.2 mph - N/A   Clear
3:20 AM 42.8 °F - 33.8 °F 70% 30.12 in - Variable 1.2 mph - N/A   Clear
3:50 AM 42.8 °F - 32.0 °F 66% 30.12 in - Variable 2.3 mph - N/A   Clear
4:20 AM 42.8 °F 41.1 °F 33.8 °F 70% 30.12 in - Variable 3.5 mph - N/A   Clear
4:50 AM 42.8 °F 41.1 °F 33.8 °F 70% 30.12 in - Variable 3.5 mph - N/A   Clear
5:00 AM 42 °F - 33 °F 60% 30.14 in 6 mi 3.5 mph - -  
5:20 AM 41.0 °F 38.0 °F 32.0 °F 70% 30.12 in - East 4.6 mph - N/A   Clear
5:50 AM 41.0 °F 39.0 °F 32.0 °F 70% 30.15 in - Variable 3.5 mph - N/A   Clear
6:20 AM 41.0 °F - 32.0 °F 70% 30.15 in - Variable 2.3 mph - N/A   Clear
6:50 AM 41.0 °F 39.0 °F 32.0 °F 70% 30.15 in - Variable 3.5 mph - N/A   Clear
7:20 AM 42.8 °F 41.1 °F 32.0 °F 66% 30.18 in - Variable 3.5 mph - N/A   Clear
7:50 AM 44.6 °F - 33.8 °F 66% 30.18 in - Variable 2.3 mph - N/A   Clear
8:00 AM 46 °F - 34 °F 52% 30.19 in 6 mi 1.2 mph - -  
8:20 AM 48.2 °F - 33.8 °F 58% 30.18 in - Calm Calm - N/A   Clear
8:50 AM 55.4 °F - 35.6 °F 47% 30.18 in - Variable 1.2 mph - N/A   Clear
9:20 AM 57.2 °F - 30.2 °F 36% 30.18 in - NNE 5.8 mph - N/A   Clear
9:50 AM 57.2 °F - 30.2 °F 36% 30.18 in - NNE 6.9 mph - N/A   Clear
10:20 AM 60.8 °F - 32.0 °F 34% 30.18 in - North 4.6 mph - N/A   Clear
10:50 AM 62.6 °F - 32.0 °F 32% 30.18 in - NNW 4.6 mph - N/A   Clear
11:00 AM 62 °F - 32 °F 21% 30.20 in 6 mi NNW 5.8 mph - -  
11:20 AM 64.4 °F - 30.2 °F 28% 30.18 in - Variable 3.5 mph - N/A   Clear
11:50 AM 64.4 °F - 30.2 °F 28% 30.18 in - Variable 3.5 mph - N/A   Clear
12:20 PM 66.2 °F - 30.2 °F 26% 30.15 in - Variable 3.5 mph - N/A   Clear
12:50 PM 66.2 °F - 30.2 °F 26% 30.15 in - Variable 3.5 mph - N/A   Clear
1:20 PM 66.2 °F - 30.2 °F 26% 30.15 in - NW 5.8 mph - N/A   Clear
1:50 PM 66.2 °F - 32.0 °F 28% 30.15 in - NW 11.5 mph - N/A   Clear
2:00 PM 67 °F - 32 °F 16% 30.15 in 6 mi NW 11.5 mph - -  
2:20 PM 66.2 °F - 33.8 °F 30% 30.15 in - NW 12.7 mph - N/A   Clear
2:50 PM 66.2 °F - 35.6 °F 32% 30.15 in - NW 13.8 mph - N/A   Clear
3:20 PM 64.4 °F - 35.6 °F 34% 30.12 in - NNW 12.7 mph - N/A   Clear
3:50 PM 64.4 °F - 35.6 °F 34% 30.15 in - NNW 13.8 mph - N/A   Clear
4:20 PM 64.4 °F - 37.4 °F 37% 30.15 in - NW 11.5 mph - N/A   Clear
4:50 PM 62.6 °F - 37.4 °F 39% 30.15 in - NNW 12.7 mph - N/A   Clear
5:00 PM 62 °F - 38 °F 29% 30.17 in 6 mi NNW 12.7 mph - -  
5:20 PM 60.8 °F - 39.2 °F 45% 30.15 in - NNW 6.9 mph - N/A   Clear
5:50 PM 59.0 °F - 39.2 °F 48% 30.15 in - North 5.8 mph - N/A   Clear
6:20 PM 59.0 °F - 39.2 °F 48% 30.18 in - Variable 3.5 mph - N/A   Clear
6:50 PM 59.0 °F - 39.2 °F 48% 30.18 in - NNE 4.6 mph - N/A   Clear
7:20 PM 57.2 °F - 39.2 °F 51% 30.18 in - North 4.6 mph - N/A   Clear
7:50 PM 57.2 °F - 39.2 °F 51% 30.21 in - North 4.6 mph - N/A   Clear
8:00 PM 57 °F - 39 °F 40% 30.22 in 6 mi North 4.6 mph - -  
8:20 PM 55.4 °F - 39.2 °F 54% 30.21 in - NE 4.6 mph - N/A   Clear
8:50 PM 53.6 °F - 39.2 °F 58% 30.21 in - Variable 3.5 mph - N/A   Clear
9:20 PM 50.0 °F - 37.4 °F 62% 30.21 in - ENE 6.9 mph - N/A   Clear
9:50 PM 50.0 °F - 37.4 °F 62% 30.21 in - ENE 6.9 mph - N/A   Clear
10:20 PM 50.0 °F - 37.4 °F 62% 30.21 in - Variable 3.5 mph - N/A   Clear
10:50 PM 50.0 °F - 37.4 °F 62% 30.21 in - ESE 4.6 mph - N/A   Clear
11:00 PM 49 °F - 36 °F 51% 30.22 in 6 mi ESE 4.6 mph - -  
11:20 PM 48.2 °F - 35.6 °F 62% 30.21 in - Variable 1.2 mph - N/A   Clear
11:50 PM 46.4 °F - 35.6 °F 66% 30.21 in - Variable 1.2 mph - N/A   Clear